Location: Nashville
(36.1660°N, 86.7840°W)
Time: 07:21:07
(UTC-05:00)

EO-88 - Pass Details

Date: 25 May 2022
Orbit: 457 x 464 km, 97.3° (Epoch: 27 June)

Event Time Altitude Azimuth Distance (km) Brightness Sun altitude
Exits shadow 22:20:59 54° 353° (N) 570 ? -23.5°
Drops below altitude 10° 22:23:45 10° 349° (N) 1,622 ? -23.8°
Sets 22:25:48 0° 349° (N) 2,504 ? -24.0°
